Miscellaneous Local Product
Issued by NWS North Platte, NE

Home | Current Version | Previous Version | Graphics & Text | Print | Product List | Glossary On
Versions: 1 2 3 4 5 6 7 8 9 10 11 12 13 14 15 16 17 18 19 20 21 22 23 24 25 26 27 28 29 30 31 32 33 34 35 36 37 38 39 40 41 42 43 44 45 46 47 48 49 50
000
AXUS43 KLBF 231010
MISLBF


WESTERN AND NORTH CENTRAL NEBRASKA HOURLY WEATHER ROUNDUP
NATIONAL WEATHER SERVICE NORTH PLATTE NE
500 AM CDT MON OCT 23 2017

NOTE: "FAIR" INDICATES FEW OR NO CLOUDS BELOW 12,000 FEET WITH NO
SIGNIFICANT WEATHER AND/OR OBSTRUCTIONS TO VISIBILITY.

NOTE: STATIONS NOT REPORTING VARIABLES SUCH AS SKY/WEATHER OR
PRESSURE ARE PROVIDED BY RAWS AND APRS NETWORKS AND ARE NOT UNDER
NATIONAL WEATHER SERVICE QUALITY CONTROL.

...OBSERVATIONS IN AND NEAR THE EASTERN PANHANDLE OF NEBRASKA...

CITY           SKY/WX    TMP DP  RH WIND       PRES   REMARKS
PINE RIDGE     CLOUDY    48  38  68 W3        30.16R
GORDON         CLOUDY    44  39  82 W7        30.17R
CHADRON        CLOUDY    45  35  68 W9        30.18R
ALLIANCE       CLOUDY    44  34  67 NW10      30.19R
SIDNEY         CLOUDY    48  34  58 N32       30.22R
CRESCENT LAKE    N/A     46  37  70 N22G45      N/A
$$

...OBSERVATIONS IN NORTHERN NEBRASKA AND FAR SOUTHERN SOUTH DAKOTA...

CITY           SKY/WX    TMP DP  RH WIND       PRES   REMARKS
WINNER         FAIR      56  39  53 NW21G31   30.02R
VALENTINE      CLOUDY    57  30  35 NW17G28   30.08R
THEDFORD       PTCLDY    53  37  53 NW18G29   30.11R
AINSWORTH      LGT RAIN  55  39  54 NW17G25   30.08R
O`NEILL        MOCLDY    57  40  53 NW22G28   29.97R
ORD            CLOUDY    58  39  49 NW17G33   29.98R
BROKEN BOW     PTCLDY    56  39  53 N22G28    30.03R
HALSEY           N/A     54  38  53 NW9G16      N/A
BUTTE            N/A     59  40  48 NW21G29     N/A
CHAMBERS         N/A     56  39  53 S3          N/A
EWING            N/A     57  41  56 NW10        N/A
$$

...OBSERVATIONS IN SOUTHWEST NEBRASKA AND FAR NORTHEAST COLORADO...

CITY           SKY/WX    TMP DP  RH WIND       PRES   REMARKS
HOLYOKE        FAIR      55  34  44 N20G31    30.16R
IMPERIAL       CLOUDY    54  34  46 N16G28    30.13R
OGALLALA       CLOUDY    55  35  46 N16G25    30.15R
NORTH PLATTE   PTCLDY    54  38  54 N15G22    30.09R
MCCOOK         CLOUDY    53  35  50 N16       30.07R
LEXINGTON      CLOUDY    50  38  62 NW10      30.04R
STAPLETON        N/A     52  38  58 S5G16       N/A
GOTHENBURG       N/A     52  33  48 NW7         N/A
CALLAWAY         N/A     51  36  57 N8          N/A
$$

...OBSERVATIONS IN CENTRAL LINCOLN COUNTY AREA...

CITY           SKY/WX    TMP DP  RH WIND       PRES   REMARKS
N.P. AIRPORT   PTCLDY    54  38  54 N15G22    30.09R
N.P. DOWNTOWN    N/A     52  38  60 N6G13       N/A
N.P. SOUTHEAST   N/A     52  37  57 N6G17       N/A
N.P. HILLCREST   N/A     54  38  55 N25G35      N/A
$$

...SOME OBSERVATIONS FROM AROUND THE REGION...

CITY           SKY/WX    TMP DP  RH WIND       PRES   REMARKS
DENVER         CLOUDY    51  27  39 E8        30.19R
LIMON          CLOUDY    40  28  62 W7        30.20S
ASPEN          CLOUDY    37  29  72 S8        30.49F WCI  31
LARAMIE        CLOUDY    47  27  45 W33G45    30.26F
CASPER         CLOUDY    42  33  70 VRB5      30.29R
CHEYENNE       CLOUDY    53  27  36 NW22G33   30.23R
SCOTTSBLUFF    CLOUDY    46  34  62 NW23G32   30.23R
GRAND ISLAND   CLOUDY    55  37  50 NW18      29.94R
OMAHA          CLOUDY    47  36  65 S9        29.86F
SIOUX FALLS    MOCLDY    53  39  59 NW12      29.86R
PIERRE         CLEAR     52  36  54 NW25G35   29.99R
RAPID CITY     CLEAR     50  21  32 NW30G41   30.12R
BISMARCK       PTCLDY    49  38  65 W22G28    29.88R
KANSAS CITY    CLEAR     42  39  89 S7        29.96F
HILL CITY      CLEAR     51  33  50 W9        29.99R
WICHITA        CLEAR     48  43  82 S9        29.97F
DODGE CITY     CLEAR     50  32  50 W12       30.01F
OKLAHOMA CITY  PTCLDY    49  39  68 S6        30.06F
DALLAS         CLEAR     50  45  83 SW6       30.09F
AMARILLO       CLOUDY    46  34  62 W9        30.09F
$$




USA.gov is the U.S. government's official web portal to all federal, state and local government web resources and services.